RESURS O1 DEB, 23347

Orbit data source: Space-Track

RESURS O1 DEB, 23347 is space debris in SSO originally from a launch on Fri, 04 Nov 1994 UTC launched from the Tyuratam Missile And Space Complex (TTMTR). Debris objects in space refer to the collection of defunct objects orbiting the Earth. Examples of debris include non-operational satellites, rocket bodies, and fragments generated from explosions, collisions, or faulty payload assembly.

Loading next visibility...
Identifier
23347, 1994-074F
Orbit
SSO
Country
Flag of CISCIS
Related business
Manufacturer
Yuzhnoe
Mission
Spacecraft
Bus & Motor
SEP MOTOR COVER, Unknown motor
Mass
~0 kg wet, ~1 kg dry
Launch date (UTC)
1994-11-04 (32 years ago)
Launch vehicle
Unknown
Launch site
Tyuratam Missile And Space Complex (TTMTR)
Object type
Payload
Rocket body
Debris
Shape & HBR
Unknown shape, 0.2 m
Radar Cross Section
Medium (>0.1 m² and <1 m²)

Expand to show TLE details & history
Last TLE update: 11 hours ago

TLE from 11 hours ago
0 RESURS O1 DEB
1 23347U 94074F   26166.16945192  .00001046  00000-0  21619-3 0  9994
2 23347  97.8186 231.3865 0121831 165.3161 250.8084 14.57745239669776
Epoch: 2026-06-15T04:04Z
TLE epoch observation values (Epoch: 2026-06-15T04:04:00.645Z)
Latitude
54.16558°
Longitude
-103.97807°
Altitude
738.677 km
Speed
7.475 km/s
True Right ascension
14h 41m 56s
True Declination
54° 00' 06"
Sunlit
Object was in daylight at epoch
Visualization orbit readout
Latitude
Unknown
Longitude
Unknown
Altitude
Unknown
Speed
Unknown
Apparent Right ascension
Unknown
Apparent Declination
Unknown
Sunlit
N/A
Visualization observer readout
Local Sidereal Time
01:23:41
Azimuth
Unknown
Elevation
Unknown
Doppler factor
Unknown
Orbital elements
Apogee altitude
783.734 km
Perigee altitude
611.327 km
Semi-major axis
7,075.667 km
Eccentricity
0.01218
Inclination
97.8186°
RAAN
231.3865°
Arg. of periapsis
165.3161°
True anomaly
249.49659°
Mean anomaly
250.8084°
Eccentric anomaly
250.15183°
Mean motion
3.64663 °/min
Orbital period
98.72 mins
BSTAR
0.00021619
Loading maneuver chart data...
Computing Atmospheric mass density...

Documentation

Showing up to 5 results
|